Flag for Albania Weather past 2 weeks in Durrës, Albania

Now
77 °F

Sunny.


Feels Like: 79 °F
Forecast: 79 / 88 °F
Wind: No wind

Location: Tirana Airport

Current Time: Aug 1, 2015 at 8:18:32 AM

Latest Report: Aug 1, 2015 at 7:50 AM


Visibility: 10 mi

Pressure: 29.86 "Hg

Humidity: 65%

Dew point: 64 °F

Location of DurrësLocation

Historic Weather in Durrës — Graph

°F

Durrës temperature yesterday

Maximum temperature yesterday: 99 °F (at 12:50 PM)
Minimum temperature yesterday: 70 °F (at 3:50 AM)
Average temperature yesterday: 83 °F

Past Weeks' High & Low Weather Summary

 TemperatureHumidityPressure
High104 °F (Jul 21, 2:50 PM)89% (Jul 20, 11:50 PM)30.07 "Hg (Jul 20, 11:50 PM)
Low68 °F (Jul 27, 4:20 AM)22% (Jul 17, 4:20 PM)29.71 "Hg (Jul 27, 5:20 PM)
Average84 °F58%29.83 "Hg
* Reported Jul 17 6:20 AM — Aug 1 6:50 AM, Durrës, Weather by CustomWeather, © 2015

Note: Actual official high and low records may vary slightly from our data, if they occured in-between our weather recording intervals... More about our weather records

Advertising

Durrës weather history for previous 24 hours

 ConditionsComfort  
Time TempWeatherWind HumidityBarometerVisibility
6:50 AM
Sat, Aug 1
73 °FSunny.2 mph78%29.86 "Hg10 mi
6:20 AM72 °FClear.No wind83%29.86 "Hg10 mi
5:50 AM72 °FClear.2 mph83%29.86 "Hg10 mi
5:20 AM70 °FClear.No wind88%29.86 "Hg10 mi
4:50 AM72 °FClear.No wind88%29.86 "Hg10 mi
4:20 AM72 °FClear.No wind83%29.86 "Hg10 mi
3:50 AM73 °FClear.3 mph83%29.86 "Hg10 mi
3:20 AM75 °FClear.2 mph78%29.86 "Hg10 mi
2:50 AM73 °FClear.3 mph89%29.86 "Hg10 mi
2:20 AM73 °FClear.3 mph89%29.86 "Hg10 mi
1:50 AM75 °FClear.5 mph83%29.86 "Hg10 mi
1:20 AM75 °FClear.2 mph89%29.86 "Hg10 mi
12:50 AM75 °FClear.2 mph83%29.86 "Hg10 mi
12:20 AM77 °FPassing clouds.3 mph83%29.86 "HgN/A
11:50 PM
Fri, Jul 31
75 °FClear.2 mph83%29.86 "Hg10 mi
11:20 PM77 °FClear.No wind83%29.83 "Hg10 mi
10:50 PM77 °FClear.No wind83%29.83 "Hg10 mi
10:20 PM77 °FClear.2 mph79%29.83 "Hg10 mi
9:50 PM79 °FClear.No wind79%29.83 "Hg10 mi
9:20 PM79 °FClear.No wind79%29.83 "Hg10 mi
8:50 PM81 °FSunny.5 mph74%29.83 "Hg10 mi
8:20 PM81 °FSunny.7 mph70%29.80 "Hg10 mi
7:50 PM82 °FSunny.8 mph70%29.80 "Hg10 mi
7:20 PM88 °FPassing clouds.7 mph59%29.80 "HgN/A
6:50 PM90 °FPassing clouds.7 mph52%29.77 "HgN/A
6:20 PM91 °FSunny.9 mph46%29.77 "Hg10 mi
5:50 PM95 °FSunny.9 mph34%29.77 "Hg10 mi
5:20 PM97 °FSunny.9 mph28%29.77 "Hg10 mi
4:50 PM95 °FSunny.9 mph30%29.77 "Hg10 mi
4:20 PM97 °FPassing clouds.10 mph28%29.77 "HgN/A
3:50 PM97 °FSunny.12 mph27%29.77 "Hg10 mi
3:20 PM99 °FSunny.10 mph25%29.77 "Hg10 mi
2:50 PM99 °FScattered clouds.8 mph25%29.77 "HgN/A
2:20 PM95 °FScattered clouds.7 mph34%29.77 "HgN/A
1:50 PM97 °FScattered clouds.7 mph34%29.77 "HgN/A
1:20 PM97 °FScattered clouds.9 mph34%29.80 "HgN/A
12:50 PM99 °FPassing clouds.6 mph31%29.80 "HgN/A
12:20 PM95 °FPassing clouds.6 mph30%29.80 "HgN/A
11:50 AM93 °FPassing clouds.3 mph30%29.80 "HgN/A
11:20 AM93 °FPassing clouds.3 mph36%29.80 "HgN/A
10:50 AM93 °FPassing clouds.3 mph36%29.80 "HgN/A
10:20 AM91 °FSunny.2 mph38%29.80 "Hg10 mi
9:20 AM86 °FPassing clouds.3 mph49%29.80 "HgN/A
8:50 AM84 °FSunny.6 mph43%29.80 "Hg10 mi
8:20 AM82 °FSunny.7 mph42%29.80 "Hg10 mi
Weather by CustomWeather, © 2015

See weather overviewHow to use our weather pages